Total_Precipitation_Accumulation
2.96 2.95 3.39 4.24 4.93 4.46 3.96 3.19 2.73 2.57 2.17 1.72 1.32 1.28 1.59 2.07 2.66 3.19 3.47 3.21 2.23 1.77 1.89 2.82 3.66 3.34 2.85 2.44 2.22 2.24 2.24 2.38 2.38 2.39 2.21 2.04 1.90 1.83 1.68 1.57 1.64 1.60 1.48 1.37 1.31 1.46 1.54 1.50 1.63
2.26 3.12 3.99 4.92 4.61 3.94 3.69 3.22 2.92 2.42 1.76 1.40 1.03 0.92 1.03 1.14 1.22 1.95 3.27 3.11 1.97 1.62 1.72 2.13 3.02 2.91 2.50 2.25 2.21 2.33 2.36 2.49 2.46 2.35 2.13 1.98 1.95 1.87 1.72 1.70 1.84 1.68 1.57 1.44 1.37 1.51 1.65 1.56 1.62
2.39 3.52 4.51 4.80 3.73 3.43 3.56 3.30 2.70 1.98 1.44 1.31 1.10 0.94 1.16 1.48 1.55 2.21 3.02 2.33 1.67 1.56 1.71 2.34 2.98 2.73 2.41 2.20 2.39 2.59 2.61 2.58 2.40 2.20 2.00 1.96 1.98 1.92 1.86 1.91 2.00 1.78 1.66 1.50 1.40 1.50 1.55 1.51 1.51
2.76 3.93 4.13 3.87 3.23 2.82 2.95 2.91 2.28 1.85 1.41 1.01 1.00 1.03 1.11 1.54 1.61 1.94 1.99 1.65 1.44 1.58 1.74 2.24 2.87 2.68 2.46 2.29 2.53 2.65 2.68 2.73 2.60 2.33 2.07 1.98 1.93 1.91 1.86 1.93 1.87 1.82 1.77 1.56 1.46 1.50 1.54 1.52 1.51
3.23 4.13 4.00 3.44 3.05 2.73 2.44 2.06 1.82 1.78 1.46 1.09 0.93 1.21 1.62 2.01 1.76 1.64 1.58 1.49 1.33 1.44 1.49 1.79 2.54 2.63 2.46 2.38 2.63 2.70 2.76 2.93 2.84 2.55 2.37 2.14 1.96 1.93 1.93 1.99 1.85 1.79 1.80 1.78 1.69 1.63 1.61 1.58 1.59
3.50 3.60 3.86 3.40 3.03 2.83 2.67 1.97 1.73 1.72 1.37 1.07 1.00 1.30 2.10 2.50 2.08 1.76 1.54 1.61 1.54 1.51 1.43 1.46 2.17 2.47 2.47 2.51 2.58 2.56 2.58 2.68 2.72 2.50 2.31 2.08 1.94 1.92 2.06 2.14 1.97 1.93 1.77 1.68 1.75 1.78 1.79 1.81 1.77
3.42 3.52 3.56 2.96 2.94 3.15 2.74 1.92 1.77 1.68 1.59 1.28 0.94 1.46 2.24 2.70 2.27 1.79 1.62 1.64 1.73 1.64 1.57 1.49 1.67 2.03 2.38 2.46 2.36 2.36 2.34 2.35 2.47 2.34 2.22 2.03 1.96 1.94 2.04 2.08 2.00 2.03 2.00 1.96 2.04 2.17 2.13 2.05 2.06
2.53 2.87 2.93 2.86 2.97 3.18 2.36 1.79 1.47 1.44 1.42 1.07 0.88 1.45 2.17 2.20 1.95 1.79 1.81 1.94 2.07 1.84 1.69 1.52 1.49 1.57 1.67 1.91 2.10 2.28 2.33 2.30 2.36 2.18 1.99 1.87 1.84 1.88 2.01 2.00 1.98 2.13 2.20 2.24 2.42 2.57 2.48 2.56 2.41
2.29 3.01 3.32 3.31 3.02 2.58 1.69 1.56 1.34 1.12 1.18 1.03 0.84 0.94 1.26 1.45 1.58 1.76 1.79 1.86 1.93 1.66 1.52 1.56 1.56 1.57 1.63 1.60 1.67 2.01 2.15 2.18 2.05 1.97 1.84 1.69 1.44 1.39 1.59 1.74 2.16 2.48 2.69 2.63 2.63 2.51 2.35 2.25 2.06
2.35 3.14 3.13 2.51 2.18 1.92 1.41 1.32 1.19 1.21 1.26 1.18 0.99 0.97 1.11 1.30 1.60 1.75 1.64 1.62 1.52 1.40 1.32 1.37 1.38 1.51 1.56 1.42 1.64 1.95 1.78 1.68 1.45 1.47 1.34 1.40 1.35 1.32 1.15 1.38 1.93 2.23 2.35 2.37 2.38 2.29 2.02 1.70 1.35
1.86 2.38 2.14 1.91 1.67 1.42 1.27 1.28 1.13 1.19 1.39 1.25 1.06 1.13 1.41 1.62 1.74 1.57 1.45 1.44 1.25 1.18 1.12 1.05 1.11 1.17 1.30 1.47 1.71 2.00 2.06 1.87 1.64 1.40 1.32 1.36 1.29 1.21 1.09 1.11 1.29 1.46 1.54 1.44 1.48 1.49 1.37 1.27 1.17
1.59 1.54 1.52 1.72 1.47 1.41 1.27 1.21 1.21 1.19 1.24 1.10 0.93 1.00 1.23 1.47 1.66 1.51 1.35 1.29 1.05 1.00 1.06 0.87 0.78 0.92 1.10 1.20 1.33 1.61 1.68 1.60 1.49 1.29 1.20 1.29 1.33 1.22 1.17 1.17 1.21 1.23 1.21 1.25 1.26 1.35 1.32 1.14 1.05
1.94 1.65 1.40 1.37 1.37 1.44 1.25 1.18 1.16 1.14 1.03 0.92 0.87 1.05 1.20 1.26 1.36 1.30 1.26 1.22 1.11 1.05 1.04 0.92 0.80 0.77 0.85 0.91 1.01 1.16 1.31 1.38 1.40 1.37 1.18 1.19 1.32 1.29 1.26 1.20 1.25 1.14 1.05 1.11 1.20 1.25 1.30 1.21 1.06
1.84 1.59 1.55 1.53 1.42 1.39 1.38 1.14 1.12 1.34 1.03 0.91 0.98 1.08 1.09 1.07 1.08 1.19 1.19 1.18 1.13 1.07 1.09 1.01 0.88 0.84 0.86 0.84 0.84 0.84 0.97 1.12 1.23 1.27 1.19 1.20 1.30 1.31 1.37 1.32 1.25 1.18 1.09 1.12 1.30 1.28 1.30 1.29 1.22
1.75 1.90 1.80 1.69 1.55 1.48 1.40 1.53 1.42 1.29 1.07 1.01 1.08 1.03 1.00 0.98 0.97 1.08 1.07 1.01 1.02 1.11 1.13 1.11 1.03 1.01 1.00 0.95 0.91 0.77 0.81 0.89 1.04 1.19 1.20 1.26 1.22 1.16 1.24 1.26 1.20 1.18 1.19 1.21 1.26 1.31 1.39 1.32 1.23
1.95 2.20 2.37 1.99 1.68 1.43 1.45 1.96 1.78 1.41 1.15 1.16 1.12 1.03 0.99 0.97 0.93 0.95 0.94 0.96 0.94 1.01 1.16 1.23 1.13 1.14 1.14 1.13 1.09 1.00 1.01 1.09 1.16 1.33 1.30 1.24 1.27 1.24 1.23 1.26 1.25 1.27 1.31 1.30 1.34 1.42 1.42 1.39 1.37
2.09 2.13 2.03 1.89 1.54 1.29 1.32 1.69 1.67 1.47 1.20 1.08 1.06 1.00 0.91 0.83 0.82 0.79 0.77 0.79 0.86 0.91 1.01 1.12 1.21 1.26 1.23 1.22 1.29 1.37 1.39 1.39 1.40 1.48 1.39 1.27 1.27 1.32 1.45 1.48 1.47 1.43 1.46 1.46 1.41 1.43 1.36 1.37 1.38
1.97 1.64 1.44 1.42 1.34 1.20 1.15 1.28 1.32 1.33 1.20 1.01 0.90 0.87 0.88 0.79 0.75 0.70 0.66 0.67 0.77 0.84 0.91 1.03 1.15 1.36 1.44 1.43 1.40 1.54 1.57 1.60 1.68 1.73 1.56 1.43 1.47 1.59 1.77 1.84 1.74 1.70 1.69 1.68 1.62 1.66 1.55 1.44 1.47
1.42 1.37 1.26 1.08 1.05 1.12 1.05 1.05 1.08 1.08 1.07 0.96 0.83 0.70 0.68 0.67 0.63 0.61 0.57 0.59 0.64 0.72 0.78 0.89 1.00 1.20 1.30 1.34 1.45 1.65 1.81 1.93 2.02 2.06 1.92 1.79 1.76 1.91 2.06 1.97 2.04 2.05 1.92 1.91 1.96 2.01 1.97 1.78 1.64
1.26 1.29 1.14 0.98 0.84 0.87 0.92 0.95 0.95 0.89 0.89 0.79 0.69 0.63 0.55 0.50 0.48 0.43 0.39 0.42 0.46 0.47 0.53 0.64 0.79 0.89 1.04 1.24 1.50 1.71 1.98 2.02 2.08 2.14 2.13 2.04 1.98 2.12 2.16 2.23 2.32 2.34 2.35 2.28 2.17 2.28 2.44 2.17 1.93
1.07 1.13 1.03 0.96 0.85 0.78 0.78 0.95 0.88 0.81 0.77 0.69 0.56 0.49 0.42 0.35 0.31 0.26 0.26 0.33 0.40 0.39 0.43 0.53 0.66 0.82 1.05 1.31 1.67 1.96 2.24 2.34 2.39 2.33 2.33 2.29 2.29 2.33 2.37 2.42 2.48 2.49 2.36 2.35 2.46 2.59 2.94 2.74 2.36
1.05 0.77 0.73 0.75 0.92 0.97 0.80 1.10 0.82 0.67 0.66 0.61 0.52 0.48 0.41 0.34 0.30 0.28 0.26 0.28 0.31 0.36 0.43 0.57 0.77 1.00 1.28 1.61 1.96 2.24 2.54 2.70 2.54 2.51 2.50 2.44 2.33 2.32 2.42 2.41 2.39 2.35 2.30 2.37 2.45 2.51 2.94 3.15 2.85
0.74 0.61 0.73 0.79 0.83 0.80 0.62 0.80 0.71 0.56 0.62 0.56 0.48 0.46 0.49 0.47 0.37 0.35 0.36 0.37 0.41 0.48 0.58 0.77 1.05 1.36 1.65 1.90 2.08 2.33 2.47 2.50 2.47 2.41 2.40 2.30 2.25 2.22 2.23 2.21 2.30 2.30 2.33 2.39 2.57 2.70 2.98 3.03 3.03
0.56 0.67 0.82 0.85 0.91 0.97 0.54 0.64 0.75 0.57 0.52 0.51 0.46 0.41 0.40 0.45 0.41 0.41 0.45 0.53 0.60 0.68 0.85 1.05 1.23 1.53 1.72 1.87 2.00 2.15 2.30 2.35 2.33 2.32 2.35 2.32 2.28 2.17 2.08 2.03 2.10 2.22 2.35 2.40 2.49 2.66 2.93 3.05 3.15
0.55 0.97 1.34 1.35 1.28 0.96 0.46 0.66 0.77 0.57 0.44 0.39 0.41 0.40 0.37 0.41 0.47 0.49 0.61 0.77 0.85 0.89 1.02 1.20 1.28 1.48 1.59 1.65 1.78 1.93 1.95 1.97 2.00 2.01 2.01 1.92 1.87 1.85 1.90 1.95 2.02 2.16 2.25 2.32 2.44 2.58 2.65 2.78 3.03
0.50 0.80 1.34 1.45 1.24 0.90 0.63 0.92 0.84 0.59 0.45 0.41 0.42 0.42 0.45 0.54 0.65 0.76 0.90 0.99 1.07 1.11 1.10 1.16 1.30 1.34 1.35 1.42 1.43 1.52 1.59 1.64 1.68 1.65 1.65 1.69 1.73 1.75 1.69 1.72 1.79 2.01 2.20 2.28 2.38 2.39 2.39 2.45 2.63
0.53 0.58 0.65 0.94 0.88 0.92 0.87 1.06 0.98 0.61 0.49 0.48 0.48 0.49 0.54 0.69 0.90 1.15 1.35 1.45 1.52 1.46 1.29 1.17 1.19 1.18 1.16 1.27 1.32 1.35 1.41 1.45 1.47 1.47 1.39 1.50 1.53 1.53 1.48 1.52 1.54 1.66 1.88 2.12 2.27 2.23 2.16 2.13 2.29
0.44 0.59 0.76 1.13 1.31 1.27 1.15 1.31 1.28 0.84 0.66 0.58 0.61 0.68 0.80 1.00 1.34 1.63 1.90 2.08 2.05 1.83 1.57 1.34 1.16 1.08 1.06 1.12 1.21 1.28 1.31 1.31 1.27 1.31 1.23 1.27 1.37 1.36 1.29 1.30 1.41 1.58 1.68 1.85 2.05 2.13 2.08 2.08 2.17
0.48 0.67 0.84 1.08 1.13 1.43 1.62 1.63 1.33 1.11 0.92 0.85 0.94 1.13 1.30 1.56 1.79 1.98 2.15 2.28 2.08 1.88 1.60 1.33 1.15 1.14 1.17 1.20 1.24 1.25 1.21 1.19 1.16 1.12 1.08 1.13 1.21 1.20 1.20 1.34 1.42 1.49 1.57 1.75 2.00 2.15 2.15 2.08 2.09
0.61 0.87 1.12 1.53 1.42 1.33 1.65 1.73 1.24 1.06 1.03 1.05 1.15 1.24 1.38 1.51 1.54 1.66 1.76 1.78 1.82 1.77 1.57 1.36 1.24 1.23 1.28 1.31 1.34 1.29 1.22 1.17 1.14 1.09 1.01 0.99 0.96 0.94 1.06 1.20 1.24 1.28 1.32 1.51 1.80 2.00 2.05 2.02 1.91